Zurück zum Katalog

COSMOS 1823 DEB

AktivLEO
NORAD 39810·DEBRIS·🇷🇺 Russia

Gestartet Feb 20, 1987 von Plesetsk Cosmodrome

Loading…

Nächste Überflüge (nächste 24 Stunden)

TLE

VeraltetSource: Space-Track

Epoche: Sep 2, 2026, 22:21 UTC

1 39810U 87020EJ  26245.93153250  .00000026  00000-0  31160-3 0  9997
2 39810  73.6994  79.3213 0035699 349.5707  10.4593 12.41842449557056

Verfolge COSMOS 1823 DEB in Echtzeit mit AllMySat

Download on the App Store